Content
SEND FEEDBACK

Daily
Averages
Monthly
Summary
United States of America

ASHEVILLE, NORTH CAROLINA


Home > North America > United States > North Carolina
Elevation: 2240 feet     Latitude: 35 36N     Longitude: 082 32W

WEATHER
 
SELECT A DAY
Number of Records: 230,425;   Date Range: 1/1/95 - 11/26/14
 
SHARE

PRINT THIS DATA

[ ← Previous Day ]
WEATHER ALMANAC - MAY 3, 2013
[ Next Day → ]
[ °C ]   °F
Weather ElementAverageHighLow
Temperature55.4 °F59 °F (4:54 pm)53.1 °F (4:54 am)
Dewpoint49.1 °F53.6 °F (12:31 am)44.6 °F (12:02 pm)
Humidity80.3 %100 % (12:31 am)65 % (12:54 pm)
Barometer30.16 in30.25 in (12:31 am)30.07 in (11:54 pm)
Wind Speed4.8 mph10.4 mph (12:54 pm)
Wind Gust19.6 mph (4:54 pm)
Weather ElementAverage
Visibility9.5 mi
Wind DirectionENE (69.8 °)

Weather ElementTotal
Precipitation---
Heating Degree Days9 (Base 65)
Growing Degree Days6.1 (Base 50)
Averaged from 46 records on May 3, 2013
WEATHER CONDITIONS BREAKOUT
WIND DIRECTION BREAKOUT
WEATHER BY HOUR - MAY 3, 2013
[ °C ]   °F
Local TimeTemperatureDewpointHumidityBarometerVisibilityWind DirectionWind SpeedGust SpeedPrecipitationEventsConditions
12:31 AM53.6 °F53.6 °F100 %30.25 in7.0 miCalm0.00 inRainLight Rain
12:46 AM53.6 °F53.6 °F100 %30.24 in6.0 miSSW (200°)3.5 mph0.00 inOvercast
12:54 AM54.0 °F53.1 °F97 %30.21 in5.0 miCalm0.00 inOvercast
1:54 AM54.0 °F53.1 °F97 %30.18 in10.0 miCalm0.00 inOvercast
2:29 AM53.6 °F53.6 °F100 %30.21 in10.0 miSSW (200°)3.5 mphOvercast
2:40 AM53.6 °F53.6 °F100 %30.20 in10.0 miCalmOvercast
2:54 AM54.0 °F53.1 °F97 %30.16 in10.0 miSSW (200°)3.5 mphOvercast
3:11 AM53.6 °F53.6 °F100 %30.19 in10.0 miSouth (190°)3.5 mphOvercast
3:19 AM53.6 °F51.8 °F94 %30.19 in10.0 miSouth (180°)3.5 mphOvercast
3:54 AM53.6 °F51.8 °F94 %30.19 in10.0 miSouth (170°)5.8 mphOvercast
4:54 AM53.1 °F51.1 °F93 %30.15 in10.0 miCalmOvercast
5:34 AM53.6 °F50.0 °F88 %30.18 in10.0 miSSE (150°)4.6 mphOvercast
5:49 AM53.6 °F50.0 °F88 %30.18 in10.0 miCalmOvercast
5:54 AM53.1 °F50.0 °F89 %30.15 in10.0 miCalmOvercast
6:54 AM54.0 °F50.0 °F86 %30.16 in10.0 miCalmOvercast
7:54 AM53.1 °F48.9 °F86 %30.17 in10.0 miSE (130°)8.1 mphOvercast
8:54 AM53.1 °F48.9 °F86 %30.18 in10.0 miCalmOvercast
9:01 AM53.6 °F48.2 °F82 %30.21 in10.0 miESE (120°)3.5 mphOvercast
9:54 AM53.1 °F48.0 °F83 %30.19 in10.0 miCalmOvercast
10:54 AM55.0 °F46.0 °F72 %30.19 in10.0 miVariable3.5 mphOvercast
11:54 AM55.9 °F45.0 °F67 %30.18 in10.0 miSE (130°)8.1 mphClear
12:02 PM55.4 °F44.6 °F67 %30.21 in10.0 miEast (100°)6.9 mphScattered Clouds
12:54 PM57.9 °F46.0 °F65 %30.16 in10.0 miESE (110°)10.4 mphScattered Clouds
1:12 PM57.2 °F46.4 °F67 %30.19 in10.0 miVariable4.6 mphMostly Cloudy
1:54 PM57.0 °F46.9 °F69 %30.15 in10.0 miESE (120°)10.4 mph17.3 mphOvercast
2:36 PM57.2 °F48.2 °F72 %30.17 in10.0 miSE (130°)8.1 mph18.4 mphOvercast
2:45 PM57.2 °F48.2 °F72 %30.17 in10.0 miVariable6.9 mphOvercast
2:54 PM55.9 °F50.0 °F80 %30.14 in10.0 miSE (130°)8.1 mphOvercast
2:59 PM55.4 °F48.2 °F77 %30.17 in7.0 miVariable6.9 mphOvercast
3:54 PM57.9 °F48.9 °F72 %30.12 in7.0 miEast (100°)8.1 mph18.4 mphOvercast
4:54 PM59.0 °F48.0 °F67 %30.11 in10.0 miEast (90°)6.9 mph19.6 mphOvercast
5:06 PM57.2 °F48.2 °F72 %30.14 in10.0 miEast (100°)8.1 mph17.3 mphOvercast
5:54 PM57.9 °F48.0 °F70 %30.10 in10.0 miVariable5.8 mphOvercast
6:25 PM57.2 °F48.2 °F72 %30.13 in10.0 miVariable4.6 mphOvercast
6:40 PM57.2 °F48.2 °F72 %30.13 in10.0 miEast (100°)6.9 mph16.1 mphOvercast
6:54 PM57.9 °F48.0 °F70 %30.09 in10.0 miVariable5.8 mph16.1 mphOvercast
7:26 PM57.2 °F48.2 °F72 %30.12 in10.0 miESE (110°)9.2 mphOvercast
7:54 PM55.0 °F50.0 °F83 %30.10 in6.0 miVariable3.5 mph17.3 mph0.00 inRainLight Rain
8:05 PM55.4 °F48.2 °F77 %30.13 in10.0 miVariable4.6 mph0.00 inOvercast
8:39 PM55.4 °F48.2 °F77 %30.13 in10.0 miCalm0.00 inOvercast
8:54 PM55.9 °F48.0 °F75 %30.10 in10.0 miVariable5.8 mph0.00 inOvercast
9:54 PM57.0 °F46.9 °F69 %30.09 in10.0 miVariable6.9 mph16.1 mphOvercast
10:51 PM57.2 °F46.4 °F67 %30.12 in10.0 miEast (90°)6.9 mphOvercast
10:54 PM57.0 °F46.9 °F69 %30.09 in10.0 miSE (130°)10.4 mph18.4 mphOvercast
11:03 PM55.4 °F46.4 °F72 %30.12 in10.0 miESE (120°)9.2 mphOvercast
11:54 PM55.9 °F46.9 °F72 %30.07 in10.0 miESE (110°)6.9 mph16.1 mphOvercast
Hourly data recorded from KAVL, located miles away from Asheville, North Carolina







STORIES FROM OUR PARTNERS